TimeCDT,TemperatureF,Dew PointF,Humidity,Sea Level PressureIn,VisibilityMPH,Wind Direction,Wind SpeedMPH,Gust SpeedMPH,PrecipitationIn,Events,Conditions,WindDirDegrees,DateUTC
12:53 AM,64.9,63.0,93,30.21,7.0,Calm,Calm,-,N/A,,Partly Cloudy,0,2013-07-16 05:53:00
1:53 AM,66.0,64.0,93,30.20,7.0,Calm,Calm,-,N/A,,Mostly Cloudy,0,2013-07-16 06:53:00
2:53 AM,68.0,66.0,93,30.19,8.0,Calm,Calm,-,N/A,,Overcast,0,2013-07-16 07:53:00
3:53 AM,73.9,68.0,82,30.19,10.0,South,4.6,-,N/A,,Mostly Cloudy,180,2013-07-16 08:53:00
4:53 AM,73.9,69.1,85,30.19,10.0,South,3.5,-,N/A,,Scattered Clouds,190,2013-07-16 09:53:00
5:53 AM,73.9,69.1,85,30.19,9.0,South,3.5,-,N/A,,Clear,190,2013-07-16 10:53:00
6:53 AM,75.9,70.0,82,30.20,10.0,SSW,4.6,-,N/A,,Clear,200,2013-07-16 11:53:00
7:53 AM,79.0,71.1,77,30.21,10.0,SSW,5.8,-,N/A,,Partly Cloudy,210,2013-07-16 12:53:00
8:53 AM,81.0,71.1,72,30.22,10.0,SSW,6.9,17.3,N/A,,Scattered Clouds,210,2013-07-16 13:53:00
9:53 AM,82.9,71.1,67,30.21,10.0,Variable,5.8,-,N/A,,Mostly Cloudy,0,2013-07-16 14:53:00
10:53 AM,86.0,70.0,59,30.20,10.0,Variable,6.9,-,N/A,,Scattered Clouds,0,2013-07-16 15:53:00
11:53 AM,87.1,69.1,55,30.20,10.0,Variable,5.8,-,N/A,,Mostly Cloudy,0,2013-07-16 16:53:00
12:53 PM,90.0,68.0,48,30.19,10.0,SSW,9.2,16.1,N/A,,Partly Cloudy,210,2013-07-16 17:53:00
1:53 PM,90.0,68.0,48,30.18,10.0,SSW,9.2,-,N/A,,Mostly Cloudy,210,2013-07-16 18:53:00
2:53 PM,91.0,68.0,47,30.17,10.0,SSW,11.5,18.4,N/A,,Scattered Clouds,210,2013-07-16 19:53:00
3:53 PM,90.0,66.9,46,30.17,10.0,SSW,10.4,17.3,N/A,,Scattered Clouds,210,2013-07-16 20:53:00
4:53 PM,90.0,66.0,45,30.17,10.0,SW,8.1,-,N/A,,Partly Cloudy,220,2013-07-16 21:53:00
5:53 PM,89.1,66.0,46,30.16,10.0,SW,9.2,-,N/A,,Partly Cloudy,230,2013-07-16 22:53:00
6:53 PM,87.1,66.0,49,30.16,10.0,Variable,6.9,16.1,N/A,,Clear,0,2013-07-16 23:53:00
7:53 PM,86.0,66.9,53,30.16,10.0,Variable,4.6,-,N/A,,Clear,0,2013-07-17 00:53:00
8:53 PM,80.1,69.1,69,30.17,10.0,Calm,Calm,-,N/A,,Clear,0,2013-07-17 01:53:00
9:53 PM,75.0,69.1,82,30.20,10.0,Calm,Calm,-,N/A,,Clear,0,2013-07-17 02:53:00
10:53 PM,73.9,68.0,82,30.21,10.0,Calm,Calm,-,N/A,,Clear,0,2013-07-17 03:53:00
11:53 PM,72.0,68.0,87,30.21,10.0,Calm,Calm,-,N/A,,Clear,0,2013-07-17 04:53:00